Погода в Лямине

Россия / Ханты-Мансийский автономный округ - Югра     61°16′21″N   71°44′41″E
темп.,
°C
ветер,
м/с
пор.,
м/с
влажн.,
%
обл.,
%
осадки,
мм/ч
давл.,
гПа
погр.,
м
14 апреля, ср
ср1423:00+4зюз61490100 0.0 1024287
02:00+3зюз71486100 0.0 1020269
05:00+3з51189100 0.1 1019242
08:00+2з611100100 2.5 1019232
11:00+3зсз5810097 2.8 1021183
14:00+4зсз4599100 0.0 1022138
17:00+3зюз46100100 0.0 102396
20:00+3юз36100100 0.1 102278
15 апреля, чт
чт1523:00+4ююз510100100 0.1 1019163
02:00+5юз7149776 0.0 1016223
05:00+5зюз81691100 0.0 1014243
08:00+6зюз8169399 0.0 1012368
11:00+11зюз9187968 0.0 1010637
14:00+13зюз1116668 0.0 1009996
17:00+12з101674100 0.1 10091039
20:00+2с51096100 0.6 1013465
16 апреля, пт
пт1623:00+2зсз3790100 1.3 1013409
02:00+2зсз5983100 0.0 1014379
05:00−2ссз9137313 0.0 1017743
08:00−5с10126084 0.0 10221128
11:00−5с911400 0.0 10261309
14:00−4с79370 0.0 10281296
17:00−3с33370 0.0 10281025
20:00−4ю344513 0.0 1026161
17 апреля, сб
сб1723:00−4ю71148100 0.0 1023514
02:00−3ююз101650100 0.0 1018729
05:00−2юз111750100 0.1 10141005
08:00−2зюз91392100 1.7 1012733
11:00−2ссз11135217 2.3 10141265
14:00−4ссз111448100 0.0 10171846
17:00−5ссз9124798 0.0 10181825
20:00−8с711505 0.0 10191352
18 апреля, вс
вс1823:00−9с710525 0.0 10191087
02:00−11с79575 0.0 1019912
05:00−12с610615 0.0 1021814
08:00−10с8105675 0.0 10211019
11:00−8с91147100 0.0 10221534
14:00−7с91143100 0.0 10241844
17:00−7с91045100 0.1 10261867
20:00−8с8105283 0.0 10271392